Simultaneous Nadir Overpasses (SNOs) Predictions

Prediction of SNOs between GOES-16 and AQUA Satellite Orbit:

Table of predicted SNOs for the next 14.0 days since TLE Epoch: 5/15/2021
Index Date Time (GOES-16) GOES-16 Lat,Lon AQUA Lat,Lon Distance(km) Time Diff (sec)
1 05/16/2021 06:29:24 -0.03, -75.24 -0.30, -73.87 156.01 80
2 05/16/2021 18:53:29 0.02, -75.26 -0.77, -79.07 432.97 80
3 05/18/2021 06:17:13 -0.02, -75.27 -0.96, -70.92 495.12 80
4 05/18/2021 18:41:17 0.02, -75.28 -0.17, -76.10 93.68 80
5 05/20/2021 18:26:26 0.01, -75.32 0.49, -73.15 246.25 80
6 05/21/2021 06:50:21 -0.01, -75.32 0.62, -78.31 339.64 80
7 05/23/2021 06:35:30 -0.01, -75.36 -0.04, -75.36 3.26 80
8 05/25/2021 06:23:18 -0.01, -75.40 -0.65, -72.39 341.58 80
9 05/25/2021 18:47:21 0.01, -75.42 -0.46, -77.58 246.86 80
10 05/27/2021 18:32:30 0.01, -75.46 0.16, -74.62 94.25 80
11 05/28/2021 06:56:25 -0.01, -75.46 0.91, -79.79 491.43 80
